User: anonymous   Login
Location: Rehoboth Beach
(38.7438°N, 75.1341°W)
Time: 16:33:23
(UTC-04:00)
Language:

Cosmos 1452 Rocket - Orbit

View from above orbital plane
View from above orbital plane
View from above satellite
View from above satellite

Ground track
Ground track

The orbit data is extracted from the following two-line orbital elements,

1 13992U 83031B   18142.93798194 +.00000024 +00000-0 +17077-4 0  9997
2 13992 074.0526 103.9948 0005093 347.2816 012.8208 14.36118313837293
Epoch (UTC): 22 May 2018 22:30:41
Eccentricity: 0.0005093
inclination: 74.0526°
perigee height: 768 km
apogee height: 775 km
right ascension of ascending node: 103.9948°
argument of perigee: 347.2816°
revolutions per day: 14.36118313
mean anomaly at epoch: 12.8208°
orbit number at epoch: 83729

The dashed part of the orbit path shows where the satellite is in the earth's shadow,  

DLR